Russell, KS

3:03 PM CST on December 13, 2017 (GMT -0600)
Russell Municipal

Weather History for KRSL - February, 2014

Change the Weather History Date:

Wednesday, February 5, 2014

  Actual Average Record
Temperature  
Mean Temperature 3 °F -  
Max Temperature 8 °F 38 °F 76 °F (1963)
Min Temperature -2 °F 16 °F -11 °F (1982)
Degree Days  
Heating Degree Days 62    
Moisture  
Dew Point -3 °F    
Average Humidity 73    
Maximum Humidity 84    
Minimum Humidity 55    
Precipitation  
Precipitation 0.00 in - - ()
Sea Level Pressure  
Sea Level Pressure 30.62 in    
Wind  
Wind Speed 18 mph (NNW)    
Max Wind Speed 25 mph    
Max Gust Speed 33 mph    
Visibility 8 miles    
Events Snow    
Averages and records for this station are not official NWS values.
T = Trace of Precipitation, MM = Missing Value Source: NWS Daily Summary

Daily Weather History Graph

Daily Weather History Graph

Search for Another Location

Airport or City:

Trip Planner

Search our weather history database for the weather conditions in past years. The results will help you decide how hot, cold, wet, or windy it might be!

Date:

Astronomy

Feb. 05, 2014 Rise Set
Actual Time 7:37 AM CST 6:01 PM CST
Civil Twilight 7:09 AM CST 6:29 PM CST
Nautical Twilight 6:38 AM CST 7:00 PM CST
Astronomical Twilight 6:06 AM CST 7:32 PM CST
Moon 10:57 AM CST (2/5) No Moon Set
Length of Visible Light 11h 19m
Length of Day
10h 23m
Waxing Crescent, 39% of the Moon is Illuminated
Feb 5
Waxing Crescent
Feb 6
First Quarter
Feb 14
Full
Feb 22
Last Quarter
Mar 1
New

Hourly Weather History & Observations

Time (CST) Temp. Windchill Dew Point Humidity Pressure Visibility Wind Dir Wind Speed Gust Speed Precip Events Conditions
12:53 AM 6.1 °F -14.8 °F 1.0 °F 80% 30.48 in 1.8 mi North 21.9 mph - 0.00 in Snow Light Snow
1:19 AM 5.0 °F -14.7 °F 1.0 °F 84% 30.38 in 2.5 mi North 18.4 mph - 0.00 in Snow Light Snow
1:37 AM 5.0 °F -15.7 °F -0.0 °F 80% 30.39 in 4.0 mi North 20.7 mph - 0.00 in Snow Light Snow
1:53 AM 5.0 °F -17.5 °F -0.0 °F 80% 30.50 in 3.0 mi North 25.3 mph - 0.00 in Snow Light Snow
2:24 AM 3.9 °F -18.1 °F -0.9 °F 80% 30.41 in 2.5 mi North 23.0 mph 33.4 mph 0.00 in Snow Light Snow
2:35 AM 3.9 °F -17.1 °F -0.9 °F 80% 30.41 in 4.0 mi North 20.7 mph - 0.00 in Snow Light Snow
2:53 AM 3.9 °F -17.1 °F -0.9 °F 80% 30.53 in 4.0 mi North 20.7 mph 28.8 mph 0.00 in Snow Light Snow
3:25 AM 3.0 °F -18.8 °F -0.9 °F 84% 30.45 in 4.0 mi NNW 21.9 mph - 0.00 in Snow Light Snow
3:53 AM 3.0 °F -18.3 °F -2.0 °F 80% 30.57 in 7.0 mi North 20.7 mph 28.8 mph 0.00 in   Overcast
4:17 AM 1.9 °F -19.2 °F -2.9 °F 80% 30.46 in 10.0 mi NNW 19.6 mph - N/A   Overcast
4:53 AM 1.9 °F -20.7 °F -2.9 °F 80% 30.60 in 9.0 mi North 23.0 mph - N/A   Overcast
5:39 AM 1.0 °F -20.4 °F -4.0 °F 79% 30.49 in 10.0 mi North 19.6 mph - N/A   Scattered Clouds
5:53 AM 1.0 °F -19.9 °F -5.1 °F 75% 30.62 in 10.0 mi North 18.4 mph - N/A   Partly Cloudy
6:18 AM -0.0 °F -18.7 °F -5.1 °F 79% 30.53 in 10.0 mi NNW 13.8 mph - N/A   Mostly Cloudy
6:41 AM -0.0 °F -20.1 °F -5.1 °F 79% 30.52 in 10.0 mi North 16.1 mph - N/A   Scattered Clouds
6:53 AM -0.9 °F -19.9 °F -6.0 °F 79% 30.66 in 10.0 mi North 13.8 mph - N/A   Partly Cloudy
7:53 AM -2.0 °F -21.9 °F -7.1 °F 79% 30.69 in 10.0 mi North 15.0 mph - N/A   Clear
8:53 AM -0.0 °F -18.7 °F -6.0 °F 76% 30.71 in 10.0 mi NNW 13.8 mph - N/A   Clear
9:53 AM 3.0 °F -15.5 °F -5.1 °F 69% 30.76 in 10.0 mi NNW 15.0 mph - N/A   Clear
10:53 AM 5.0 °F -14.7 °F -4.0 °F 66% 30.76 in 10.0 mi North 18.4 mph - N/A   Clear
11:53 AM 6.1 °F -10.9 °F -2.9 °F 67% 30.75 in 10.0 mi North 13.8 mph - N/A   Clear
12:53 PM 7.0 °F -12.6 °F -2.9 °F 64% 30.73 in 10.0 mi North 19.6 mph - N/A   Clear
1:53 PM 7.0 °F -11.6 °F -2.9 °F 64% 30.70 in 10.0 mi North 17.3 mph - N/A   Clear
2:53 PM 8.1 °F -8.4 °F -4.0 °F 58% 30.71 in 10.0 mi North 13.8 mph - N/A   Clear
3:53 PM 7.0 °F -9.8 °F -5.1 °F 58% 30.72 in 10.0 mi North 13.8 mph - N/A   Clear
4:53 PM 7.0 °F -9.1 °F -6.0 °F 55% 30.74 in 10.0 mi North 12.7 mph - N/A   Clear
5:53 PM 5.0 °F -10.8 °F -6.0 °F 61% 30.75 in 10.0 mi North 11.5 mph - N/A   Clear
6:53 PM 3.9 °F -9.4 °F -5.1 °F 66% 30.76 in 10.0 mi NNW 8.1 mph - N/A   Clear
7:53 PM 3.9 °F -8.2 °F -5.1 °F 66% 30.76 in 10.0 mi NNW 6.9 mph - N/A   Partly Cloudy
8:53 PM 3.9 °F -9.4 °F -4.0 °F 70% 30.74 in 10.0 mi NNW 8.1 mph - N/A   Overcast
9:53 PM 5.0 °F -9.1 °F -4.0 °F 66% 30.73 in 10.0 mi North 9.2 mph - N/A   Overcast
10:53 PM 3.9 °F -6.9 °F -4.0 °F 70% 30.73 in 10.0 mi NNW 5.8 mph - N/A   Overcast
11:53 PM 3.9 °F -6.9 °F -4.0 °F 70% 30.74 in 10.0 mi NW 5.8 mph - N/A   Overcast